WR9A-13 Weather Reports


time (UTC)temp
C
wind
direction
speed
KPH
gust
KPH
rain 1hr
cm
rain 24hr
cm
rain mn
cm
humidity
%
barometer
mb
20260503231527 16 196 6.4 20.9 0.00 0.08 0.05 55 1010.8
20260503231015 16 214 8.0 20.9 0.00 0.08 0.05 55 1011.0
20260503230532 16 218 6.4 17.7 0.00 0.08 0.05 55 1010.9
20260503230024 16 182 9.7 24.1 0.00 0.08 0.05 54 1010.9
20260503225531 16 213 4.8 24.1 0.00 0.08 0.05 54 1011.0
20260503225028 16 174 9.7 24.1 0.00 0.08 0.05 53 1011.0
20260503224515 16 228 4.8 24.1 0.00 0.08 0.05 54 1011.1
20260503224032 16 185 9.7 24.1 0.00 0.08 0.05 53 1011.1
20260503223519 16 212 8.0 25.7 0.00 0.08 0.05 53 1011.2
20260503223017 17 237 11.3 25.7 0.00 0.08 0.05 53 1011.3
20260503222524 17 171 11.3 22.5 0.00 0.08 0.05 52 1011.2
20260503222021 17 165 8.0 29.0 0.00 0.08 0.05 53 1011.2
20260503221527 17 141 11.3 30.6 0.00 0.08 0.05 53 1011.2
20260503221024 17 186 11.3 35.4 0.00 0.08 0.05 52 1011.1
20260503220532 17 191 12.9 35.4 0.00 0.08 0.05 52 1011.2
20260503220024 17 217 16.1 27.4 0.00 0.08 0.05 52 1011.2
20260503215537 17 230 11.3 25.7 0.00 0.08 0.05 52 1011.2
20260503215025 17 207 14.5 25.7 0.00 0.08 0.05 52 1011.3
20260503214542 17 220 9.7 27.4 0.00 0.08 0.05 52 1011.3
20260503214028 17 233 6.4 24.1 0.00 0.08 0.05 52 1011.3
20260503213526 17 174 11.3 30.6 0.00 0.08 0.05 51 1011.4
20260503213014 17 253 11.3 27.4 0.00 0.08 0.05 50 1011.4
20260503212531 17 213 11.3 24.1 0.00 0.08 0.05 49 1011.4
20260503212019 18 187 14.5 25.7 0.00 0.08 0.05 49 1011.3
20260503211536 18 160 8.0 25.7 0.00 0.08 0.05 49 1011.5
20260503211024 17 166 6.4 30.6 0.00 0.08 0.05 53 1011.6
20260503210541 17 209 14.5 32.2 0.00 0.08 0.05 51 1011.6
20260503210020 17 185 12.9 29.0 0.00 0.08 0.05 50 1011.7
20260503205516 17 176 11.3 27.4 0.00 0.08 0.05 51 1011.7
20260503205035 16 217 8.0 30.6 0.00 0.08 0.05 53 1011.8
20260503204522 16 190 16.1 30.6 0.00 0.08 0.05 51 1011.8
20260503204038 16 184 9.7 29.0 0.00 0.08 0.05 52 1012.1
20260503203525 16 269 11.3 37.0 0.00 0.08 0.05 52 1012.3
20260503203042 16 166 9.7 37.0 0.00 0.08 0.05 52 1012.4
20260503202530 16 195 12.9 29.0 0.00 0.08 0.05 51 1012.6
20260503202018 17 203 11.3 29.0 0.00 0.08 0.05 50 1012.6
20260503201514 17 242 11.3 32.2 0.00 0.08 0.05 50 1012.7
20260503201032 17 231 8.0 24.1 0.00 0.08 0.05 51 1012.8
20260503200519 17 191 12.9 25.7 0.00 0.08 0.05 51 1012.7
20260503200029 17 269 14.5 33.8 0.00 0.08 0.05 50 1013.1
20260503195516 17 182 19.3 33.8 0.00 0.08 0.05 49 1013.2
20260503195032 17 244 14.5 32.2 0.00 0.08 0.05 49 1013.3
20260503194519 17 165 12.9 33.8 0.00 0.08 0.05 49 1013.3
20260503194014 17 180 17.7 32.2 0.00 0.08 0.05 48 1013.6
20260503193520 17 222 9.7 22.5 0.00 0.08 0.05 51 1013.6
20260503193014 17 103 12.9 27.4 0.00 0.08 0.05 51 1013.5
20260503192519 17 186 12.9 30.6 0.00 0.08 0.05 50 1013.8
20260503192016 17 203 11.3 30.6 0.00 0.08 0.05 50 1014.0
20260503191519 16 178 6.4 19.3 0.00 0.08 0.05 56 1014.2
20260503191017 16 120 9.7 19.3 0.00 0.08 0.05 59 1014.2
20260503190532 15 209 4.8 19.3 0.00 0.08 0.05 60 1014.6
20260503190041 15 197 11.3 32.2 0.00 0.10 0.05 61 1014.8
20260503185528 15 193 11.3 32.2 0.00 0.10 0.05 62 1014.7
20260503185016 15 234 12.9 24.1 0.00 0.10 0.05 56 1014.9
20260503184514 15 147 8.0 20.9 0.00 0.10 0.05 54 1014.8
20260503184022 15 177 11.3 20.9 0.00 0.10 0.05 51 1015.1
20260503183518 15 199 4.8 16.1 0.00 0.10 0.05 50 1015.6
20260503183033 15 225 8.0 19.3 0.00 0.10 0.05 53 1015.6
20260503182519 15 218 8.0 27.4 0.00 0.10 0.05 54 1015.6
20260503182035 15 255 12.9 27.4 0.00 0.10 0.05 53 1015.4
20260503181521 15 218 9.7 20.9 0.00 0.10 0.05 55 1015.4
20260503181038 15 208 8.0 19.3 0.00 0.10 0.05 56 1015.2
20260503180524 15 161 6.4 20.9 0.00 0.10 0.05 56 1015.3
20260503180015 15 217 9.7 22.5 0.03 0.10 0.05 56 1015.2
20260503175523 15 185 12.9 22.5 0.03 0.10 0.05 56 1015.3
20260503175020 15 230 14.5 24.1 0.03 0.10 0.05 56 1015.5
20260503174528 15 224 9.7 24.1 0.03 0.10 0.05 56 1015.6
20260503174025 14 182 9.7 24.1 0.03 0.10 0.05 57 1015.8
20260503173542 14 224 9.7 22.5 0.03 0.10 0.05 58 1016.0
20260503173030 14 214 11.3 22.5 0.03 0.10 0.05 58 1016.1
20260503172518 14 205 8.0 20.9 0.03 0.10 0.05 58 1016.5
20260503172014 13 242 9.7 22.5 0.03 0.10 0.05 58 1016.4
20260503171521 13 199 11.3 22.5 0.03 0.10 0.05 58 1016.5
20260503171017 14 243 9.7 24.1 0.03 0.10 0.05 60 1016.7
20260503170535 14 229 11.3 24.1 0.03 0.10 0.05 57 1016.8
20260503150529 14 239 14.5 33.8 0.00 0.08 0.03 54 1017.7
20260503131023 11 188 12.9 20.9 0.00 0.10 0.03 60 1018.4
20260503130520 10 186 6.4 17.7 0.00 0.10 0.03 62 1018.3
20260503110533 5 208 4.8 9.7 0.00 0.10 0.03 73 1017.7
20260503081542 5 230 4.8 12.9 0.03 0.13 0.03 71 1017.8
20260503081030 5 218 4.8 12.9 0.03 0.13 0.03 71 1018.0
20260503080527 5 209 3.2 8.0 0.03 0.13 0.03 72 1017.9
20260503072518 3 205 3.2 6.4 0.03 0.13 0.03 74 1018.1
20260503072035 3 199 3.2 6.4 0.00 0.10 0.00 74 1018.2
20260503071523 3 200 3.2 6.4 0.00 0.10 0.00 75 1018.1
20260503071039 3 198 3.2 6.4 0.00 0.10 0.00 75 1018.2
20260503070529 3 195 3.2 6.4 0.00 0.10 0.00 75 1018.2
20260503055019 3 332 0.0 4.8 0.00 0.10 0.00 75 1018.6
20260503054535 3 340 0.0 3.2 0.00 0.10 0.00 75 1018.6
20260503054023 3 342 0.0 3.2 0.00 0.10 0.00 75 1018.7
20260503053521 3 341 0.0 0.0 0.00 0.10 0.00 75 1018.6
20260503053029 3 340 0.0 0.0 0.00 0.10 0.00 75 1018.7
20260503052526 4 341 0.0 0.0 0.00 0.10 0.00 75 1018.8
20260503052014 4 340 0.0 0.0 0.00 0.10 0.00 75 1018.7
20260503051531 4 340 0.0 0.0 0.00 0.10 0.00 74 1018.8
20260503051017 4 340 0.0 0.0 0.00 0.10 0.00 74 1018.8
20260503050534 4 341 0.0 0.0 0.00 0.10 0.00 75 1018.9
20260503050016 4 340 0.0 0.0 0.00 0.10 0.00 74 1018.9
20260503045533 4 340 0.0 0.0 0.00 0.10 0.00 74 1018.9
20260503045021 4 341 0.0 0.0 0.00 0.10 0.00 74 1018.9
20260503044518 4 340 0.0 0.0 0.00 0.10 0.00 75 1018.9
20260503044036 4 341 0.0 0.0 0.00 0.10 0.00 74 1018.8
20260503043523 4 340 0.0 0.0 0.00 0.10 0.00 74 1018.8
20260503043039 4 341 0.0 0.0 0.00 0.10 0.00 74 1018.8
20260503042525 4 340 0.0 0.0 0.00 0.10 0.00 74 1018.8
20260503042041 4 340 0.0 0.0 0.00 0.10 0.00 73 1018.9
20260503041529 4 341 0.0 0.0 0.00 0.10 0.00 74 1018.9
20260503041027 5 341 0.0 0.0 0.00 0.10 0.00 73 1018.9
20260503040515 5 340 0.0 1.6 0.00 0.10 0.00 73 1018.9
20260503040025 5 340 0.0 1.6 0.00 0.13 0.10 72 1018.9
20260503035514 5 341 0.0 1.6 0.00 0.13 0.10 72 1018.9
20260503035031 5 341 0.0 0.0 0.00 0.13 0.10 72 1018.9
20260503034518 5 342 0.0 1.6 0.00 0.13 0.10 71 1019.0
20260503034015 5 340 0.0 1.6 0.00 0.13 0.10 71 1018.9
20260503033523 5 341 0.0 0.0 0.00 0.13 0.10 71 1019.0
20260503033020 5 342 0.0 0.0 0.00 0.13 0.10 71 1018.9
20260503032539 5 341 0.0 0.0 0.00 0.13 0.10 71 1018.9
20260503032026 5 341 0.0 0.0 0.00 0.13 0.10 71 1018.9
20260503031513 5 341 0.0 1.6 0.00 0.13 0.10 71 1019.0
20260503031026 5 343 0.0 1.6 0.00 0.13 0.10 70 1019.0
20260503030543 6 340 1.6 1.6 0.00 0.13 0.10 70 1019.0
20260503030024 6 341 0.0 1.6 0.00 0.13 0.10 69 1019.0
20260503025520 6 341 0.0 1.6 0.00 0.13 0.10 69 1019.0
20260503025028 6 340 0.0 1.6 0.00 0.13 0.10 69 1019.0
20260503024525 6 340 0.0 1.6 0.00 0.13 0.10 69 1019.0
20260503024033 6 341 0.0 3.2 0.00 0.13 0.10 68 1019.0
20260503023528 6 340 1.6 3.2 0.00 0.13 0.10 67 1019.0
20260503023016 6 340 1.6 3.2 0.00 0.13 0.10 67 1019.0
20260503022515 6 341 0.0 1.6 0.00 0.13 0.10 67 1019.0
20260503022022 6 340 0.0 1.6 0.00 0.13 0.10 66 1018.9
20260503021518 7 342 0.0 1.6 0.00 0.13 0.10 65 1018.9
20260503021025 7 341 0.0 3.2 0.00 0.13 0.10 64 1019.0
20260503020521 7 340 1.6 3.2 0.00 0.13 0.10 64 1019.0
20260503020032 7 341 0.0 1.6 0.00 0.13 0.10 62 1018.9
20260503015519 7 340 0.0 1.6 0.00 0.13 0.10 62 1018.9
20260503015036 7 340 1.6 1.6 0.00 0.13 0.10 61 1018.8
20260503014523 8 341 0.0 1.6 0.00 0.13 0.10 60 1018.8
20260503014040 8 341 0.0 0.0 0.00 0.13 0.10 59 1018.7
20260503013528 8 342 0.0 1.6 0.00 0.13 0.10 58 1018.7
20260503013025 8 342 0.0 1.6 0.00 0.13 0.10 57 1018.6
20260503012533 8 341 0.0 1.6 0.00 0.13 0.10 56 1018.5
20260503012030 8 340 0.0 1.6 0.00 0.13 0.10 55 1018.5
20260503011518 9 341 0.0 1.6 0.00 0.13 0.10 54 1018.6
20260503011034 9 340 1.6 1.6 0.00 0.13 0.10 52 1018.5
20260503010522 10 341 0.0 1.6 0.00 0.13 0.10 52 1018.5
20260503010033 10 342 0.0 3.2 0.00 0.13 0.10 51 1018.4
20260503005520 10 340 1.6 3.2 0.00 0.13 0.10 51 1018.5
20260503005017 10 341 0.0 1.6 0.00 0.13 0.10 48 1018.5
20260503004524 11 340 0.0 1.6 0.00 0.13 0.10 47 1018.5
20260503004020 11 340 0.0 1.6 0.00 0.13 0.10 46 1018.4
20260503003533 11 342 0.0 1.6 0.00 0.13 0.10 45 1018.5
20260503003020 11 340 1.6 4.8 0.00 0.13 0.10 44 1018.5
20260503002537 11 340 1.6 4.8 0.00 0.13 0.10 43 1018.5
20260503002025 11 341 1.6 3.2 0.03 0.13 0.10 44 1018.6
20260503001542 11 340 1.6 3.2 0.03 0.13 0.10 42 1018.4
20260503001029 11 342 0.0 3.2 0.03 0.13 0.10 42 1018.5
20260503000516 12 340 1.6 3.2 0.03 0.13 0.10 41 1018.4
20260503000027 12 341 1.6 9.7 0.03 0.13 0.10 41 1018.4
20260502235524 12 341 3.2 9.7 0.03 0.13 0.10 40 1018.4
20260502235032 12 5 3.2 12.9 0.03 0.13 0.10 40 1018.4
20260502234529 12 15 6.4 12.9 0.03 0.13 0.10 39 1018.5
20260502234017 12 338 4.8 11.3 0.03 0.13 0.10 39 1018.5
20260502233533 12 340 6.4 11.3 0.03 0.13 0.10 39 1018.5
20260502233020 12 334 3.2 8.0 0.03 0.13 0.10 39 1018.5
20260502232517 12 352 1.6 9.7 0.03 0.13 0.10 39 1018.5
20260502232024 12 302 3.2 9.7 0.00 0.10 0.08 38 1018.6